This is the latest recevied weather packets stored in our database for station/object DNO320-13. If no packets are shown the sender has not sent any weather packets the latest 1 day(s).
| Time | Temp. | Humidity | Pressure | Rain* | Wind** | Luminosity | Snow |
|---|---|---|---|---|---|---|---|
| 1778198045 | 8.33° C | 93% | 1025.5 hPa | 0 mm | - | - | - |
| 1778196473 | 7.78° C | 93% | 1025.7 hPa | 0 mm | - | - | - |
| 1778194904 | 8.33° C | 93% | 1025.6 hPa | 0 mm | - | - | - |
| 1778193243 | 8.33° C | 93% | 1025.5 hPa | 0 mm | - | - | - |
| 1778191631 | 8.33° C | 93% | 1025.3 hPa | 0 mm | - | - | - |
| 1778189995 | 8.33° C | 93% | 1025.3 hPa | 0 mm | - | - | - |
| 1778188406 | 7.78° C | 93% | 1025.3 hPa | 0 mm | - | - | - |
| 1778186772 | 7.78° C | 93% | 1025.2 hPa | 0 mm | - | - | - |
| 1778185117 | 7.78° C | 92% | 1025 hPa | 0 mm | - | - | - |
| 1778183389 | 8.33° C | 92% | 1024.6 hPa | 0 mm | - | - | - |
| 1778181858 | 8.89° C | 92% | 1024.3 hPa | 0 mm | - | - | - |
| 1778180253 | 8.89° C | 91% | 1024.3 hPa | 0 mm | - | - | - |
| 1778178613 | 8.33° C | 90% | 1023.9 hPa | 0 mm | - | - | - |
| 1778176959 | 8.33° C | 89% | 1023.6 hPa | 0 mm | - | - | - |
| 1778175416 | 9.44° C | 90% | 1023.5 hPa | 0 mm | - | - | - |
| 1778173805 | 9.44° C | 90% | 1023.5 hPa | 0 mm | - | - | - |
| 1778172239 | 9.44° C | 91% | 1023.4 hPa | 0 mm | - | - | - |
| 1778170616 | 9.44° C | 89% | 1023.4 hPa | 0 mm | - | - | - |
| 1778168978 | 9.44° C | 89% | 1023.1 hPa | 0 mm | - | - | - |
| 1778167459 | 8.89° C | 90% | 1023 hPa | 0 mm | - | - | - |
| 1778165853 | 10° C | 90% | 1022.8 hPa | 0 mm | - | - | - |
| 1778164252 | 8.33° C | 89% | 1022.7 hPa | 0.51 mm | - | - | - |
| 1778162601 | 8.89° C | 90% | 1022.5 hPa | 1.27 mm | - | - | - |
| 1778161041 | 10° C | 91% | 1022.3 hPa | 1.27 mm | - | - | - |
| 1778159376 | 10° C | 91% | 1022.3 hPa | 1.27 mm | - | - | - |
* Rain latest hour (hover to see other rain measurements)
** Current wind speed in m/s (hover to see current wind gust speed)